Regional Weather Roundup
Issued by NWS

Home | Current Version | Previous Version | Graphics & Text | Print | Product List | Glossary On
Versions: 1 2 3 4 5 6 7 8 9 10 11 12 13 14 15 16 17 18 19 20 21 22 23 24 25 26 27 28 29 30 31 32 33 34 35 36 37 38 39 40 41 42 43 44 45 46 47 48 49 50
000
ASUS43 KTOP 201659
RWRKS

WEATHER ROUNDUP FOR KANSAS
NATIONAL WEATHER SERVICE GOODLAND KS
1100 AM CST FRI JAN 20 2017

NOTE:  "FAIR" INDICATES FEW OR NO CLOUDS BELOW 12,000 FEET WITH NO
SIGNIFICANT WEATHER AND/OR OBSTRUCTIONS TO VISIBILITY.

KSZ001>006-013>018-027>032-041>047-201800-
NORTHWEST KANSAS

CITY           SKY/WX    TMP DP  RH WIND       PRES   REMARKS
GOODLAND       CLOUDY    31  31 100 CALM      29.45R
HAYS           FOG       42  41  96 S12       29.50R VSB 3/4
HILL CITY      CLOUDY    41  41 100 S3        29.48R FOG
RUSSELL        CLOUDY    43  43 100 S6        29.47R FOG
$$

KSZ061>065-074>080-084>089-201800-
SOUTHWEST KANSAS

CITY           SKY/WX    TMP DP  RH WIND       PRES   REMARKS
DODGE CITY     CLOUDY    44  38  79 SW8       29.49F
ELKHART          N/A    N/A N/A N/A MISG        N/A
GARDEN CITY    CLOUDY    40  35  83 S14       29.47F WCI  32
GREAT BEND     CLOUDY    43  42  97 SE3       29.49F FOG
LIBERAL        MOSUNNY   43  36  75 S8        29.48F
$$

KSZ066>073-081>083-090>101-201800-
SOUTHEAST KANSAS

CITY           SKY/WX    TMP DP  RH WIND       PRES   REMARKS
CHANUTE        CLOUDY    52  48  86 SE9       29.50F
COFFEYVILLE    CLOUDY    54  48  80 S15       29.50F
HUTCHINSON     CLOUDY    47  46  97 SE8       29.48S FOG
MEDICINE LODGE   N/A     43  43 100 SW6       29.50R
NEWTON         CLOUDY    46  46 100 SE9       29.48F FOG
PARSONS        CLOUDY    52  48  86 SE9       29.51F
WICHITA INTL   CLOUDY    49  47  93 SE8       29.49S FOG
WICHITA JABRA  CLOUDY    47  47 100 SE8       29.48F
WINFIELD       CLOUDY    50  46  86 S8        29.51R
$$

KSZ007>012-019>026-033>040-048>060-102>105-201800-
NORTHEAST KANSAS

CITY           SKY/WX    TMP DP  RH WIND       PRES   REMARKS
CONCORDIA      RAIN      41  41 100 E7        29.50F VSB 1/4
EMPORIA        CLOUDY    47  47 100 SE6       29.51F FOG
LAWRENCE       CLOUDY    47  47 100 E7        29.54F FOG
MANHATTAN      CLOUDY    47  46  97 E3        29.52F FOG
OLATHE IND     FOG       48  47  96 SE8       29.54F VSB 1/2
OLATHE EXE     FOG       46  46 100 SE7       29.54F VSB 1/2
SALINA         FOG       45  45 100 SE7       29.50F VSB 1/8
TOPEKA BILLARD CLOUDY    47  45  93 E7        29.54F
TOPEKA FORBES  LGT RAIN  48  46  93 SE5       29.53F VSB 3/4
$$




USA.gov is the U.S. government's official web portal to all federal, state and local government web resources and services.